FDX543 PANC-SBGR

Flight info

Callsign FDX543
Flight time N/A
Altitude 31000
Route TED DCT ELLAM DCT TIEKL NCA20 OMSUN DCT 60N30 DCT YXJ DCT YEGGA DCT YEA DCT DPR DCT ONL DCT LNK DCT MCI DCT ARG DCT MEMFS DCT MGM DCT ACORI DCT FROGZ DCT URSUS DCT BILSI UL795 LENAX UL417 NEFTU UP525 EJA UM782 LONAX UL201 OBEBA DCT ASBIV DCT RODAD DCT OBLUG UZ42 ZARES
Aircraft B77L/H-SDE1E2E3FGHIJ2J3J4J5M1RWXY/LB1D1

Departure

Time N/A
Airport Ted Stevens Anchorage International Airport (PANC)

Arrival

Time 2026-05-01 11:21
Airport São Paulo/Guarulhos–Governor André Franco Montoro International Airport (SBGR)
Time Latitude Longitude Altitude Speed Heading
2026-05-01 07:35 -2.13939 -67.16286 34885 ft 486 kts 137°
2026-05-01 07:36 -2.16460 -67.14023 34885 ft 485 kts 137°
2026-05-01 07:36 -2.21454 -67.09539 35006 ft 482 kts 137°
2026-05-01 07:37 -2.28872 -67.02877 35233 ft 478 kts 138°
2026-05-01 07:37 -2.33704 -66.98341 35382 ft 477 kts 134°
2026-05-01 07:38 -2.38353 -66.93691 35534 ft 477 kts 135°
2026-05-01 07:38 -2.43059 -66.88997 35685 ft 476 kts 135°
2026-05-01 07:39 -2.45377 -66.86684 35759 ft 476 kts 135°
2026-05-01 07:39 -2.52386 -66.79691 35984 ft 476 kts 135°
2026-05-01 07:40 -2.57050 -66.75036 36133 ft 475 kts 135°
2026-05-01 07:40 -2.61716 -66.70379 36282 ft 475 kts 135°
2026-05-01 07:41 -2.66383 -66.65719 36430 ft 475 kts 135°
2026-05-01 07:41 -2.71042 -66.61066 36578 ft 475 kts 135°
2026-05-01 07:42 -2.73371 -66.58739 36652 ft 475 kts 135°
2026-05-01 07:42 -2.78016 -66.54099 36799 ft 475 kts 135°
2026-05-01 07:43 -2.82702 -66.49416 36884 ft 475 kts 135°
2026-05-01 07:43 -2.89683 -66.42439 36884 ft 475 kts 135°
2026-05-01 07:44 -2.99118 -66.33010 36885 ft 489 kts 136°
2026-05-01 07:45 -3.03955 -66.28187 36886 ft 495 kts 135°
2026-05-01 07:45 -3.08786 -66.23347 36886 ft 494 kts 135°
2026-05-01 07:46 -3.13634 -66.18496 36884 ft 494 kts 135°
2026-05-01 07:47 -3.20910 -66.11218 36884 ft 494 kts 135°
2026-05-01 07:47 -3.25765 -66.06361 36885 ft 494 kts 135°
2026-05-01 07:48 -3.33011 -65.99112 36885 ft 494 kts 135°
2026-05-01 07:48 -3.37845 -65.94275 36885 ft 494 kts 135°
2026-05-01 07:49 -3.45120 -65.86993 36886 ft 494 kts 135°
2026-05-01 07:50 -3.49973 -65.82135 36886 ft 494 kts 135°
2026-05-01 07:50 -3.57363 -65.75018 36887 ft 494 kts 140°
2026-05-01 07:51 -3.62573 -65.70561 36886 ft 494 kts 139°
2026-05-01 07:52 -3.70356 -65.63863 36887 ft 494 kts 139°
2026-05-01 07:52 -3.75557 -65.59383 36887 ft 494 kts 139°
2026-05-01 07:53 -3.83350 -65.52670 36887 ft 494 kts 139°
2026-05-01 07:53 -3.88521 -65.48214 36887 ft 494 kts 139°
2026-05-01 07:55 -4.01489 -65.37035 36888 ft 494 kts 139°
2026-05-01 07:56 -4.14470 -65.25842 36884 ft 494 kts 139°
2026-05-01 07:57 -4.22284 -65.19102 36884 ft 494 kts 139°
2026-05-01 07:58 -4.32657 -65.10151 36885 ft 494 kts 139°
2026-05-01 07:59 -4.43034 -65.01195 36885 ft 493 kts 139°
2026-05-01 08:00 -4.58436 -64.87892 36886 ft 486 kts 139°
2026-05-01 08:01 -4.68574 -64.79132 36885 ft 482 kts 139°
2026-05-01 08:02 -4.76171 -64.72567 36886 ft 482 kts 139°
2026-05-01 08:03 -4.83780 -64.65988 36886 ft 482 kts 139°
2026-05-01 08:03 -4.91367 -64.59426 36886 ft 482 kts 139°
2026-05-01 08:04 -5.01497 -64.50665 36886 ft 485 kts 139°
2026-05-01 08:05 -5.09145 -64.44048 36886 ft 487 kts 138°
2026-05-01 08:06 -5.16800 -64.37418 36884 ft 486 kts 138°
2026-05-01 08:07 -5.27030 -64.28555 36885 ft 486 kts 138°
2026-05-01 08:08 -5.34526 -64.21768 36886 ft 486 kts 136°
2026-05-01 08:09 -5.44386 -64.12525 36885 ft 486 kts 135°
2026-05-01 08:09 -5.49296 -64.07918 36885 ft 486 kts 135°
2026-05-01 08:10 -5.59128 -63.98680 36886 ft 486 kts 135°
2026-05-01 08:11 -5.68945 -63.89453 36886 ft 486 kts 135°
2026-05-01 08:12 -5.76344 -63.82495 36886 ft 486 kts 135°
2026-05-01 08:13 -5.83683 -63.75590 36886 ft 486 kts 135°
2026-05-01 08:13 -5.91087 -63.68623 36886 ft 486 kts 135°
2026-05-01 08:14 -5.96001 -63.63996 36886 ft 486 kts 135°
2026-05-01 08:14 -6.00910 -63.59374 36886 ft 486 kts 135°
2026-05-01 08:15 -6.08276 -63.52435 36887 ft 486 kts 135°
2026-05-01 08:16 -6.13180 -63.47816 36883 ft 486 kts 135°
2026-05-01 08:16 -6.18113 -63.43167 36884 ft 486 kts 135°
2026-05-01 08:17 -6.23025 -63.38538 36884 ft 486 kts 135°
2026-05-01 08:17 -6.27940 -63.33904 36885 ft 486 kts 135°
2026-05-01 08:18 -6.32837 -63.29286 36885 ft 486 kts 135°
2026-05-01 08:19 -6.42685 -63.19994 36885 ft 486 kts 135°
2026-05-01 08:19 -6.47569 -63.15384 36886 ft 486 kts 135°
2026-05-01 08:20 -6.52476 -63.10752 36886 ft 486 kts 135°
2026-05-01 08:20 -6.57399 -63.06102 36885 ft 483 kts 135°
2026-05-01 08:21 -6.62264 -63.01506 36886 ft 481 kts 135°
2026-05-01 08:21 -6.67119 -62.96918 36886 ft 480 kts 136°
2026-05-01 08:22 -6.71959 -62.92342 36886 ft 479 kts 136°
2026-05-01 08:22 -6.76768 -62.87795 36885 ft 478 kts 136°
2026-05-01 08:23 -6.81620 -62.83208 36885 ft 478 kts 136°
2026-05-01 08:23 -6.86437 -62.78652 36885 ft 478 kts 136°
2026-05-01 08:24 -6.91273 -62.74078 36885 ft 480 kts 136°
2026-05-01 08:24 -6.96226 -62.69542 36887 ft 486 kts 139°
2026-05-01 08:25 -7.01349 -62.65104 36887 ft 490 kts 139°
2026-05-01 08:25 -7.06509 -62.60627 36887 ft 490 kts 139°
2026-05-01 08:26 -7.11637 -62.56181 36885 ft 490 kts 139°
2026-05-01 08:26 -7.16783 -62.51714 36886 ft 490 kts 139°
2026-05-01 08:27 -7.21950 -62.47227 36886 ft 490 kts 139°
2026-05-01 08:27 -7.27061 -62.42786 36886 ft 490 kts 139°
2026-05-01 08:28 -7.32204 -62.38316 36886 ft 490 kts 139°
2026-05-01 08:28 -7.37350 -62.33843 36885 ft 490 kts 139°
2026-05-01 08:29 -7.42524 -62.29343 36885 ft 490 kts 139°
2026-05-01 08:29 -7.47657 -62.24878 36885 ft 490 kts 139°
2026-05-01 08:30 -7.52777 -62.20422 36885 ft 490 kts 139°
2026-05-01 08:30 -7.57926 -62.15940 36885 ft 490 kts 139°
2026-05-01 08:31 -7.63066 -62.11465 36885 ft 490 kts 139°
2026-05-01 08:31 -7.68193 -62.06999 36886 ft 490 kts 139°
2026-05-01 08:32 -7.73346 -62.02509 36886 ft 490 kts 139°
2026-05-01 08:32 -7.78479 -61.98035 36886 ft 490 kts 139°
2026-05-01 08:33 -7.83607 -61.93564 36886 ft 490 kts 139°
2026-05-01 08:33 -7.88764 -61.89066 36886 ft 490 kts 139°
2026-05-01 08:34 -7.93913 -61.84573 36886 ft 490 kts 139°
2026-05-01 08:34 -7.99018 -61.80117 36887 ft 490 kts 139°
2026-05-01 08:35 -8.04170 -61.75619 36887 ft 490 kts 139°
2026-05-01 08:35 -8.09316 -61.71125 36887 ft 490 kts 139°
2026-05-01 08:36 -8.14455 -61.66634 36885 ft 490 kts 139°
2026-05-01 08:36 -8.19567 -61.62166 36885 ft 490 kts 139°
2026-05-01 08:37 -8.24704 -61.57675 36886 ft 490 kts 139°
2026-05-01 08:37 -8.29837 -61.53186 36886 ft 490 kts 139°
2026-05-01 08:38 -8.34969 -61.48695 36886 ft 490 kts 139°
2026-05-01 08:38 -8.40116 -61.44190 36886 ft 490 kts 139°
2026-05-01 08:39 -8.45227 -61.39714 36886 ft 490 kts 139°
2026-05-01 08:39 -8.50365 -61.35214 36887 ft 490 kts 139°
2026-05-01 08:40 -8.58068 -61.28464 36885 ft 490 kts 139°
2026-05-01 08:40 -8.63215 -61.23951 36885 ft 490 kts 139°
2026-05-01 08:41 -8.68332 -61.19463 36885 ft 490 kts 139°
2026-05-01 08:41 -8.73446 -61.14976 36886 ft 491 kts 139°
2026-05-01 08:42 -8.78607 -61.10445 36886 ft 491 kts 139°
2026-05-01 08:42 -8.83725 -61.05952 36886 ft 491 kts 139°
2026-05-01 08:43 -8.88901 -61.01405 36886 ft 492 kts 139°
2026-05-01 08:43 -8.94042 -60.96887 36886 ft 492 kts 139°
2026-05-01 08:44 -8.99192 -60.92362 36886 ft 493 kts 139°
2026-05-01 08:44 -9.04352 -60.87825 36887 ft 494 kts 139°
2026-05-01 08:45 -9.09525 -60.83275 36887 ft 495 kts 139°
2026-05-01 08:45 -9.14714 -60.78707 36885 ft 495 kts 139°
2026-05-01 08:46 -9.19886 -60.74152 36885 ft 495 kts 139°
2026-05-01 08:46 -9.25070 -60.69585 36885 ft 495 kts 139°
2026-05-01 08:47 -9.30237 -60.65032 36885 ft 495 kts 139°
2026-05-01 08:47 -9.35071 -60.60770 36886 ft 495 kts 139°
2026-05-01 08:48 -9.40251 -60.56202 36886 ft 495 kts 139°
2026-05-01 08:48 -9.45433 -60.51631 36886 ft 495 kts 139°
2026-05-01 08:49 -9.50617 -60.47055 36886 ft 495 kts 139°
2026-05-01 08:49 -9.55804 -60.42475 36887 ft 495 kts 139°
2026-05-01 08:50 -9.60958 -60.37922 36887 ft 495 kts 139°
2026-05-01 08:50 -9.66156 -60.33328 36885 ft 495 kts 139°
2026-05-01 08:51 -9.71305 -60.28776 36885 ft 495 kts 139°
2026-05-01 08:51 -9.76463 -60.24215 36885 ft 495 kts 139°
2026-05-01 08:52 -9.81631 -60.19642 36886 ft 495 kts 139°
2026-05-01 08:52 -9.86807 -60.15059 36886 ft 495 kts 139°
2026-05-01 08:53 -9.91977 -60.10481 36887 ft 495 kts 139°
2026-05-01 08:53 -9.97169 -60.05880 36887 ft 495 kts 139°
2026-05-01 08:54 -10.02334 -60.01302 36887 ft 495 kts 139°
2026-05-01 08:54 -10.07468 -59.96749 36887 ft 495 kts 139°
2026-05-01 08:55 -10.12668 -59.92136 36884 ft 495 kts 139°
2026-05-01 08:55 -10.17839 -59.87546 36884 ft 495 kts 139°
2026-05-01 08:56 -10.22982 -59.82979 36885 ft 495 kts 139°
2026-05-01 08:56 -10.28143 -59.78395 36885 ft 495 kts 139°
2026-05-01 08:57 -10.33299 -59.73812 36885 ft 495 kts 139°
2026-05-01 08:57 -10.38488 -59.69198 36886 ft 495 kts 139°
2026-05-01 08:58 -10.43632 -59.64622 36886 ft 495 kts 139°
2026-05-01 08:58 -10.48808 -59.60016 36886 ft 495 kts 139°
2026-05-01 08:59 -10.53953 -59.55434 36886 ft 495 kts 139°
2026-05-01 08:59 -10.59115 -59.50835 36886 ft 495 kts 139°
2026-05-01 09:00 -10.64288 -59.46225 36887 ft 495 kts 139°
2026-05-01 09:00 -10.69455 -59.41618 36887 ft 495 kts 139°
2026-05-01 09:01 -10.74593 -59.37035 36887 ft 495 kts 139°
2026-05-01 09:01 -10.79745 -59.32437 36885 ft 495 kts 138°
2026-05-01 09:02 -10.84927 -59.27809 36886 ft 495 kts 138°
2026-05-01 09:02 -10.90087 -59.23199 36886 ft 496 kts 138°
2026-05-01 09:03 -10.95231 -59.18601 36887 ft 497 kts 139°
2026-05-01 09:03 -11.00417 -59.13962 36887 ft 499 kts 139°
2026-05-01 09:04 -11.05640 -59.09290 36888 ft 500 kts 139°
2026-05-01 09:04 -11.10836 -59.04641 36903 ft 500 kts 139°
2026-05-01 09:05 -11.16048 -58.99973 36922 ft 500 kts 139°
2026-05-01 09:05 -11.21242 -58.95320 36938 ft 499 kts 139°
2026-05-01 09:06 -11.26409 -58.90688 36939 ft 499 kts 139°
2026-05-01 09:06 -11.31608 -58.86025 36939 ft 499 kts 139°
2026-05-01 09:07 -11.36790 -58.81375 36940 ft 498 kts 139°
2026-05-01 09:07 -11.41973 -58.76722 36940 ft 499 kts 139°
2026-05-01 09:08 -11.47183 -58.72043 36940 ft 499 kts 139°
2026-05-01 09:08 -11.52361 -58.67390 36941 ft 499 kts 139°
2026-05-01 09:09 -11.57528 -58.62743 36941 ft 498 kts 139°
2026-05-01 09:09 -11.62731 -58.58063 36941 ft 498 kts 139°
2026-05-01 09:10 -11.67909 -58.53403 36942 ft 498 kts 139°
2026-05-01 09:10 -11.73081 -58.48744 36942 ft 499 kts 139°
2026-05-01 09:11 -11.78249 -58.44088 36942 ft 498 kts 139°
2026-05-01 09:11 -11.83425 -58.39422 36943 ft 498 kts 139°
2026-05-01 09:12 -11.88621 -58.34736 36943 ft 498 kts 139°
2026-05-01 09:12 -11.93808 -58.30055 36939 ft 498 kts 139°
2026-05-01 09:13 -11.98962 -58.25401 36940 ft 498 kts 139°
2026-05-01 09:13 -12.04141 -58.20723 36940 ft 498 kts 139°
2026-05-01 09:14 -12.09337 -58.16026 36941 ft 499 kts 139°
2026-05-01 09:14 -12.14486 -58.11376 36937 ft 498 kts 140°
2026-05-01 09:15 -12.19745 -58.06789 36938 ft 499 kts 140°
2026-05-01 09:15 -12.25006 -58.02194 36939 ft 498 kts 140°
2026-05-01 09:16 -12.30273 -57.97594 36939 ft 499 kts 140°
2026-05-01 09:17 -12.38148 -57.90710 36939 ft 498 kts 140°
2026-05-01 09:17 -12.46003 -57.83839 36940 ft 499 kts 140°
2026-05-01 09:18 -12.53893 -57.76930 36940 ft 499 kts 140°
2026-05-01 09:19 -12.61756 -57.70041 36941 ft 498 kts 140°
2026-05-01 09:20 -12.69635 -57.63130 36941 ft 499 kts 140°
2026-05-01 09:21 -12.80109 -57.53934 36942 ft 498 kts 140°
2026-05-01 09:21 -12.87979 -57.47018 36942 ft 498 kts 140°
2026-05-01 09:22 -12.98471 -57.37788 36943 ft 499 kts 140°
2026-05-01 09:23 -13.06385 -57.30816 36940 ft 504 kts 140°
2026-05-01 09:24 -13.14372 -57.23776 36937 ft 506 kts 141°
2026-05-01 09:25 -13.24985 -57.14418 36937 ft 505 kts 141°
2026-05-01 09:26 -13.32973 -57.07365 36939 ft 505 kts 141°
2026-05-01 09:26 -13.40896 -57.00359 36939 ft 505 kts 141°
2026-05-01 09:27 -13.48868 -56.93308 36940 ft 504 kts 141°
2026-05-01 09:28 -13.54161 -56.88621 36940 ft 504 kts 141°
2026-05-01 09:28 -13.59454 -56.83932 36941 ft 504 kts 141°
2026-05-01 09:29 -13.67361 -56.76921 36941 ft 504 kts 141°
2026-05-01 09:30 -13.75297 -56.69877 36942 ft 504 kts 141°
2026-05-01 09:30 -13.83208 -56.62851 36943 ft 504 kts 141°
2026-05-01 09:31 -13.88519 -56.58129 36943 ft 504 kts 141°
2026-05-01 09:32 -13.96409 -56.51109 36943 ft 504 kts 141°
2026-05-01 09:32 -14.04342 -56.44044 36944 ft 504 kts 141°
2026-05-01 09:33 -14.09636 -56.39326 36945 ft 504 kts 141°
2026-05-01 09:34 -14.17564 -56.32256 36936 ft 504 kts 141°
2026-05-01 09:34 -14.25484 -56.25185 36937 ft 504 kts 141°
2026-05-01 09:35 -14.33371 -56.18137 36938 ft 504 kts 141°
2026-05-01 09:36 -14.38676 -56.13392 36938 ft 504 kts 141°
2026-05-01 09:36 -14.43953 -56.08670 36939 ft 504 kts 141°
2026-05-01 09:37 -14.49199 -56.03972 36939 ft 504 kts 141°
2026-05-01 09:37 -14.57112 -55.96879 36940 ft 504 kts 141°
2026-05-01 09:38 -14.65016 -55.89788 36941 ft 504 kts 141°
2026-05-01 09:39 -14.72937 -55.82674 36941 ft 504 kts 141°
2026-05-01 09:39 -14.78220 -55.77926 36941 ft 504 kts 141°
2026-05-01 09:40 -14.86100 -55.70838 36942 ft 504 kts 141°
2026-05-01 09:41 -14.91388 -55.66075 36943 ft 504 kts 141°
2026-05-01 09:41 -14.99270 -55.58971 36943 ft 505 kts 141°
2026-05-01 09:42 -15.04565 -55.54195 36943 ft 505 kts 141°
2026-05-01 09:43 -15.15095 -55.44694 36943 ft 504 kts 141°
2026-05-01 09:43 -15.20367 -55.39929 36944 ft 505 kts 141°
2026-05-01 09:44 -15.28283 -55.32770 36935 ft 504 kts 141°
2026-05-01 09:45 -15.33532 -55.28018 36937 ft 505 kts 141°
2026-05-01 09:45 -15.41458 -55.20836 36938 ft 505 kts 141°
2026-05-01 09:46 -15.46708 -55.16077 36938 ft 504 kts 141°
2026-05-01 09:46 -15.51976 -55.11297 36938 ft 502 kts 141°
2026-05-01 09:47 -15.57200 -55.06553 36939 ft 501 kts 141°
2026-05-01 09:47 -15.62391 -55.01835 36939 ft 499 kts 141°
2026-05-01 09:48 -15.67618 -54.97082 36940 ft 498 kts 141°
2026-05-01 09:48 -15.72783 -54.92381 36940 ft 498 kts 141°
2026-05-01 09:49 -15.77980 -54.87648 36940 ft 498 kts 141°
2026-05-01 09:49 -15.83172 -54.82916 36941 ft 498 kts 141°
2026-05-01 09:50 -15.88346 -54.78198 36941 ft 498 kts 141°
2026-05-01 09:50 -15.93542 -54.73455 36941 ft 498 kts 141°
2026-05-01 09:51 -15.98713 -54.68733 36942 ft 498 kts 141°
2026-05-01 09:51 -16.03877 -54.64013 36942 ft 498 kts 141°
2026-05-01 09:52 -16.09063 -54.59270 36942 ft 498 kts 141°
2026-05-01 09:52 -16.14250 -54.54523 36942 ft 498 kts 141°
2026-05-01 09:53 -16.19434 -54.49775 36942 ft 498 kts 141°
2026-05-01 09:53 -16.24610 -54.45031 36946 ft 498 kts 141°
2026-05-01 09:54 -16.29792 -54.40278 36957 ft 498 kts 141°
2026-05-01 09:54 -16.34967 -54.35528 36968 ft 498 kts 141°
2026-05-01 09:55 -16.40145 -54.30770 36974 ft 498 kts 140°
2026-05-01 09:55 -16.45307 -54.26026 36984 ft 498 kts 140°
2026-05-01 09:56 -16.50481 -54.21267 36992 ft 498 kts 140°
2026-05-01 09:56 -16.55654 -54.16505 36993 ft 498 kts 140°
2026-05-01 09:57 -16.60822 -54.11742 36993 ft 498 kts 140°
2026-05-01 09:57 -16.66010 -54.06960 36993 ft 498 kts 140°
2026-05-01 09:58 -16.71180 -54.02188 36993 ft 498 kts 140°
2026-05-01 09:58 -16.76327 -53.97436 36994 ft 498 kts 140°
2026-05-01 09:59 -16.81510 -53.92647 36994 ft 498 kts 140°
2026-05-01 09:59 -16.86669 -53.87875 36994 ft 498 kts 140°
2026-05-01 10:00 -16.91825 -53.83104 36995 ft 498 kts 140°
2026-05-01 10:00 -16.97002 -53.78308 36995 ft 498 kts 140°
2026-05-01 10:01 -17.02175 -53.73509 36996 ft 502 kts 141°
2026-05-01 10:01 -17.07393 -53.68670 36997 ft 506 kts 141°
2026-05-01 10:02 -17.12714 -53.63815 36996 ft 510 kts 142°
2026-05-01 10:02 -17.18041 -53.59009 36996 ft 509 kts 142°
2026-05-01 10:03 -17.23389 -53.54179 36997 ft 509 kts 142°
2026-05-01 10:03 -17.28737 -53.49346 36998 ft 509 kts 142°
2026-05-01 10:04 -17.34073 -53.44518 36998 ft 509 kts 142°
2026-05-01 10:04 -17.39416 -53.39681 37001 ft 509 kts 142°
2026-05-01 10:05 -17.44747 -53.34851 37040 ft 509 kts 142°
2026-05-01 10:05 -17.50103 -53.29994 37062 ft 509 kts 142°
2026-05-01 10:06 -17.55445 -53.25146 37073 ft 510 kts 142°
2026-05-01 10:06 -17.60758 -53.20320 37073 ft 510 kts 142°
2026-05-01 10:07 -17.66122 -53.15445 37073 ft 509 kts 142°
2026-05-01 10:07 -17.71431 -53.10614 37074 ft 509 kts 142°
2026-05-01 10:08 -17.79451 -53.03312 37075 ft 510 kts 142°
2026-05-01 10:09 -17.84738 -52.98493 37075 ft 507 kts 142°
2026-05-01 10:09 -17.90027 -52.93667 37075 ft 504 kts 142°
2026-05-01 10:10 -17.95306 -52.88847 37076 ft 502 kts 141°
2026-05-01 10:10 -18.03155 -52.81674 37076 ft 499 kts 141°
2026-05-01 10:11 -18.08355 -52.76915 37076 ft 498 kts 141°
2026-05-01 10:11 -18.13575 -52.72135 37076 ft 498 kts 141°
2026-05-01 10:12 -18.17913 -52.68159 37076 ft 498 kts 141°
2026-05-01 10:13 -18.26572 -52.60215 37077 ft 498 kts 141°
2026-05-01 10:13 -18.31789 -52.55425 37077 ft 499 kts 141°
2026-05-01 10:14 -18.39588 -52.48255 37077 ft 498 kts 141°
2026-05-01 10:14 -18.44762 -52.43493 37078 ft 498 kts 141°
2026-05-01 10:15 -18.49989 -52.38680 37078 ft 498 kts 141°
2026-05-01 10:15 -18.55189 -52.33886 37075 ft 498 kts 141°
2026-05-01 10:16 -18.60363 -52.29111 37073 ft 498 kts 141°
2026-05-01 10:17 -18.68169 -52.21903 37073 ft 498 kts 141°
2026-05-01 10:17 -18.75972 -52.14688 37074 ft 498 kts 141°
2026-05-01 10:18 -18.83746 -52.07490 37074 ft 498 kts 141°
2026-05-01 10:19 -18.88918 -52.02696 37074 ft 498 kts 141°
2026-05-01 10:19 -18.94146 -51.97841 37075 ft 503 kts 141°
2026-05-01 10:20 -19.02067 -51.90484 37077 ft 510 kts 142°
2026-05-01 10:20 -19.07396 -51.85532 37077 ft 512 kts 142°
2026-05-01 10:21 -19.15374 -51.78109 37081 ft 512 kts 142°
2026-05-01 10:22 -19.23365 -51.70660 37080 ft 512 kts 142°
2026-05-01 10:23 -19.31355 -51.63203 37079 ft 513 kts 142°
2026-05-01 10:23 -19.39345 -51.55736 37087 ft 512 kts 142°
2026-05-01 10:24 -19.49992 -51.45770 37087 ft 512 kts 142°
2026-05-01 10:25 -19.60617 -51.35805 37081 ft 512 kts 142°
2026-05-01 10:26 -19.65930 -51.30817 37085 ft 512 kts 141°
2026-05-01 10:27 -19.76557 -51.20824 37120 ft 512 kts 142°
2026-05-01 10:28 -19.84526 -51.13318 37144 ft 512 kts 141°
2026-05-01 10:28 -19.92504 -51.05797 37154 ft 509 kts 141°
2026-05-01 10:29 -20.00378 -50.98359 37155 ft 506 kts 141°
2026-05-01 10:30 -20.10801 -50.88498 37156 ft 500 kts 141°
2026-05-01 10:31 -20.21161 -50.78677 37159 ft 500 kts 141°
2026-05-01 10:32 -20.28922 -50.71308 37158 ft 500 kts 141°
2026-05-01 10:33 -20.39271 -50.61469 37159 ft 500 kts 141°
2026-05-01 10:34 -20.47002 -50.54105 37158 ft 501 kts 141°
2026-05-01 10:34 -20.52189 -50.49158 37158 ft 500 kts 141°
2026-05-01 10:35 -20.59930 -50.41768 37132 ft 500 kts 141°
2026-05-01 10:35 -20.65106 -50.36821 37133 ft 501 kts 141°
2026-05-01 10:36 -20.72857 -50.29404 37129 ft 500 kts 140°
2026-05-01 10:37 -20.78051 -50.24427 37128 ft 501 kts 140°
2026-05-01 10:37 -20.85783 -50.17008 37128 ft 500 kts 140°
2026-05-01 10:38 -20.90942 -50.12055 37128 ft 501 kts 140°
2026-05-01 10:38 -20.96110 -50.07087 37127 ft 501 kts 140°
2026-05-01 10:39 -21.01304 -50.02083 37130 ft 505 kts 141°
2026-05-01 10:39 -21.06521 -49.97058 37129 ft 510 kts 141°
2026-05-01 10:40 -21.11791 -49.91978 37128 ft 515 kts 141°
2026-05-01 10:40 -21.17116 -49.86842 37129 ft 515 kts 141°
2026-05-01 10:41 -21.22425 -49.81712 37130 ft 515 kts 141°
2026-05-01 10:42 -21.30358 -49.74038 37131 ft 515 kts 141°
2026-05-01 10:42 -21.35638 -49.68925 37131 ft 515 kts 141°
2026-05-01 10:43 -21.40926 -49.63797 37132 ft 514 kts 141°
2026-05-01 10:43 -21.46238 -49.58643 37133 ft 515 kts 141°
2026-05-01 10:44 -21.51525 -49.53505 37133 ft 515 kts 141°
2026-05-01 10:44 -21.56811 -49.48365 37134 ft 515 kts 141°
2026-05-01 10:45 -21.62099 -49.43217 37136 ft 514 kts 141°
2026-05-01 10:45 -21.67387 -49.38063 37148 ft 515 kts 141°
2026-05-01 10:46 -21.72668 -49.32910 37147 ft 515 kts 141°
2026-05-01 10:46 -21.77951 -49.27753 37153 ft 515 kts 141°
2026-05-01 10:47 -21.83250 -49.22572 37154 ft 515 kts 141°
2026-05-01 10:47 -21.88544 -49.17392 37154 ft 514 kts 141°
2026-05-01 10:48 -21.93779 -49.12265 37155 ft 513 kts 141°
2026-05-01 10:48 -21.99058 -49.07089 37156 ft 512 kts 140°
2026-05-01 10:49 -22.04291 -49.01951 37156 ft 511 kts 140°
2026-05-01 10:49 -22.09498 -48.96835 37157 ft 509 kts 140°
2026-05-01 10:50 -22.14719 -48.91696 37156 ft 509 kts 140°
2026-05-01 10:50 -22.19954 -48.86541 37156 ft 509 kts 140°
2026-05-01 10:51 -22.25169 -48.81399 37157 ft 509 kts 140°
2026-05-01 10:51 -22.30389 -48.76248 37157 ft 509 kts 140°
2026-05-01 10:52 -22.35572 -48.71128 37158 ft 509 kts 140°
2026-05-01 10:52 -22.40778 -48.65979 37158 ft 509 kts 140°
2026-05-01 10:53 -22.46010 -48.60799 37158 ft 509 kts 140°
2026-05-01 10:53 -22.51186 -48.55670 37159 ft 509 kts 140°
2026-05-01 10:54 -22.56393 -48.50487 37159 ft 510 kts 139°
2026-05-01 10:54 -22.61272 -48.44927 37160 ft 513 kts 128°
2026-05-01 10:55 -22.64666 -48.38202 37165 ft 516 kts 110°
2026-05-01 10:55 -22.66252 -48.30653 37159 ft 516 kts 100°
2026-05-01 10:56 -22.68236 -48.23225 37158 ft 516 kts 108°
2026-05-01 10:56 -22.70506 -48.15909 37161 ft 516 kts 109°
2026-05-01 10:57 -22.72818 -48.08565 37170 ft 516 kts 109°
2026-05-01 10:57 -22.75017 -48.01181 37180 ft 516 kts 107°
2026-05-01 10:58 -22.77419 -47.93894 36483 ft 514 kts 117°
2026-05-01 10:58 -22.79061 -47.90490 35775 ft 512 kts 118°
2026-05-01 10:58 -22.80695 -47.87071 35059 ft 511 kts 118°
2026-05-01 10:58 -22.82322 -47.83694 34350 ft 511 kts 118°
2026-05-01 10:59 -22.83959 -47.80300 33636 ft 510 kts 118°
2026-05-01 10:59 -22.85608 -47.76887 32918 ft 510 kts 118°
2026-05-01 10:59 -22.87230 -47.73524 32211 ft 509 kts 118°
2026-05-01 10:59 -22.88864 -47.70130 31498 ft 508 kts 118°
2026-05-01 11:00 -22.90486 -47.66759 30842 ft 506 kts 117°
2026-05-01 11:00 -22.92112 -47.63376 30224 ft 503 kts 117°
2026-05-01 11:00 -22.93718 -47.60033 29618 ft 499 kts 117°
2026-05-01 11:00 -22.95311 -47.56716 29028 ft 496 kts 117°
2026-05-01 11:01 -22.96888 -47.53428 28462 ft 492 kts 117°
2026-05-01 11:01 -22.98460 -47.50149 27920 ft 487 kts 117°
2026-05-01 11:01 -23.00012 -47.46911 27379 ft 483 kts 117°
2026-05-01 11:01 -23.01546 -47.43709 26840 ft 479 kts 117°
2026-05-01 11:02 -23.03071 -47.40523 26299 ft 475 kts 117°
2026-05-01 11:02 -23.04581 -47.37369 25761 ft 471 kts 117°
2026-05-01 11:02 -23.06077 -47.34245 25223 ft 467 kts 117°
2026-05-01 11:02 -23.07567 -47.31132 24674 ft 464 kts 117°
2026-05-01 11:03 -23.08915 -47.28001 24123 ft 458 kts 110°
2026-05-01 11:03 -23.09814 -47.24675 23571 ft 452 kts 99°
2026-05-01 11:03 -23.10184 -47.21351 23029 ft 446 kts 89°
2026-05-01 11:03 -23.10041 -47.17999 22475 ft 439 kts 79°
2026-05-01 11:04 -23.09455 -47.14820 21934 ft 432 kts 73°
2026-05-01 11:04 -23.08750 -47.11676 21382 ft 426 kts 70°
2026-05-01 11:04 -23.07699 -47.08707 20826 ft 419 kts 60°
2026-05-01 11:04 -23.06208 -47.06037 20278 ft 411 kts 50°
2026-05-01 11:05 -23.04324 -47.03734 19727 ft 403 kts 39°
2026-05-01 11:05 -23.02210 -47.01823 19184 ft 397 kts 37°
2026-05-01 11:05 -23.00218 -46.99773 18635 ft 395 kts 43°
2026-05-01 11:05 -22.98322 -46.97634 18087 ft 392 kts 44°
2026-05-01 11:06 -22.96461 -46.95497 17538 ft 389 kts 45°
2026-05-01 11:06 -22.94641 -46.93375 16991 ft 386 kts 46°
2026-05-01 11:06 -22.92808 -46.91233 16483 ft 381 kts 47°
2026-05-01 11:07 -22.89395 -46.86990 15559 ft 369 kts 59°
2026-05-01 11:07 -22.88329 -46.84504 15102 ft 362 kts 75°
2026-05-01 11:07 -22.87954 -46.81854 14659 ft 356 kts 91°
2026-05-01 11:07 -22.88274 -46.79223 14172 ft 352 kts 107°
2026-05-01 11:08 -22.89265 -46.76819 13683 ft 348 kts 124°
2026-05-01 11:08 -22.90841 -46.74846 13192 ft 344 kts 141°
2026-05-01 11:08 -22.95073 -46.72756 12218 ft 335 kts 166°
2026-05-01 11:09 -22.97219 -46.71802 11714 ft 335 kts 150°
2026-05-01 11:09 -22.99129 -46.70371 11226 ft 334 kts 147°
2026-05-01 11:09 -23.01075 -46.68982 10746 ft 332 kts 149°
2026-05-01 11:10 -23.04792 -46.66355 10495 ft 308 kts 146°
2026-05-01 11:10 -23.06562 -46.65095 10328 ft 300 kts 146°
2026-05-01 11:10 -23.08282 -46.63876 10068 ft 294 kts 146°
2026-05-01 11:10 -23.09990 -46.62666 9814 ft 290 kts 146°
2026-05-01 11:11 -23.11660 -46.61483 9560 ft 287 kts 146°
2026-05-01 11:11 -23.13326 -46.60304 9321 ft 286 kts 146°
2026-05-01 11:11 -23.14994 -46.59122 9096 ft 285 kts 146°
2026-05-01 11:11 -23.16649 -46.57949 8872 ft 284 kts 146°
2026-05-01 11:12 -23.18288 -46.56797 8649 ft 282 kts 149°
2026-05-01 11:12 -23.20115 -46.56062 8422 ft 283 kts 173°
2026-05-01 11:12 -23.22056 -46.56285 8227 ft 283 kts 200°
2026-05-01 11:12 -23.23786 -46.57253 8014 ft 277 kts 211°
2026-05-01 11:13 -23.25418 -46.58308 7757 ft 272 kts 211°
2026-05-01 11:13 -23.27004 -46.59385 7500 ft 268 kts 213°
2026-05-01 11:13 -23.28577 -46.60482 7245 ft 266 kts 213°
2026-05-01 11:13 -23.30113 -46.61563 6998 ft 266 kts 213°
2026-05-01 11:14 -23.31661 -46.62660 6749 ft 265 kts 213°
2026-05-01 11:14 -23.33209 -46.63759 6498 ft 264 kts 212°
2026-05-01 11:14 -23.34745 -46.64848 6247 ft 262 kts 212°
2026-05-01 11:14 -23.36249 -46.65918 6024 ft 259 kts 212°
2026-05-01 11:15 -23.37742 -46.66979 6002 ft 253 kts 212°
2026-05-01 11:15 -23.39190 -46.68008 5995 ft 246 kts 212°
2026-05-01 11:15 -23.40575 -46.68993 5996 ft 231 kts 212°
2026-05-01 11:15 -23.41927 -46.69883 6085 ft 225 kts 202°
2026-05-01 11:16 -23.43442 -46.70155 5912 ft 223 kts 173°
2026-05-01 11:16 -23.44951 -46.69822 5678 ft 221 kts 166°
2026-05-01 11:16 -23.46448 -46.69496 5418 ft 217 kts 165°
2026-05-01 11:16 -23.47756 -46.68810 5082 ft 207 kts 136°
2026-05-01 11:17 -23.48456 -46.67524 4765 ft 197 kts 103°
2026-05-01 11:17 -23.48407 -46.66075 4453 ft 190 kts 76°
2026-05-01 11:17 -23.48089 -46.64712 4202 ft 186 kts 77°
2026-05-01 11:17 -23.47776 -46.63329 4000 ft 186 kts 76°
2026-05-01 11:18 -23.47438 -46.61978 4020 ft 187 kts 75°
2026-05-01 11:18 -23.47080 -46.60594 4007 ft 188 kts 75°
2026-05-01 11:18 -23.46717 -46.59221 4007 ft 187 kts 74°
2026-05-01 11:18 -23.46356 -46.57906 3992 ft 179 kts 73°
2026-05-01 11:19 -23.46008 -46.56618 3967 ft 177 kts 74°
2026-05-01 11:19 -23.45678 -46.55371 3701 ft 162 kts 74°
2026-05-01 11:19 -23.45368 -46.54212 3499 ft 159 kts 75°
2026-05-01 11:19 -23.45057 -46.53054 3297 ft 161 kts 74°
2026-05-01 11:20 -23.44736 -46.51880 3087 ft 161 kts 74°
2026-05-01 11:20 -23.44422 -46.50703 2872 ft 160 kts 75°
2026-05-01 11:20 -23.44109 -46.49550 2663 ft 160 kts 74°
2026-05-01 11:20 -23.43786 -46.48372 2481 ft 159 kts 73°
2026-05-01 11:21 -23.43515 -46.47375 2476 ft 110 kts 75°
2026-05-01 11:21 -23.43354 -46.46765 2468 ft 59 kts 74°
2026-05-01 11:21 -23.43277 -46.46476 2460 ft 25 kts 69°
2026-05-01 11:21 -23.43183 -46.46338 2459 ft 12 kts 43°
2026-05-01 11:22 -23.43140 -46.46300 2458 ft 8 kts 39°
2026-05-01 11:22 -23.43091 -46.46256 2457 ft 8 kts 39°
2026-05-01 11:22 -23.43060 -46.46222 2457 ft 4 kts 52°
2026-05-01 11:22 -23.43034 -46.46187 2458 ft 7 kts 50°
2026-05-01 11:23 -23.42978 -46.46151 2458 ft 11 kts
2026-05-01 11:23 -23.42884 -46.46170 2456 ft 15 kts 345°
2026-05-01 11:23 -23.42773 -46.46205 2455 ft 17 kts 344°
2026-05-01 11:23 -23.42661 -46.46236 2457 ft 14 kts 346°
2026-05-01 11:24 -23.42616 -46.46315 2455 ft 13 kts 262°
2026-05-01 11:24 -23.42644 -46.46430 2453 ft 17 kts 254°
2026-05-01 11:24 -23.42722 -46.46723 2453 ft 21 kts 253°
2026-05-01 11:25 -23.42765 -46.46886 2451 ft 23 kts 254°
2026-05-01 11:25 -23.42852 -46.47215 2452 ft 21 kts 254°
2026-05-01 11:25 -23.42894 -46.47370 2453 ft 21 kts 253°
2026-05-01 11:26 -23.42940 -46.47526 2454 ft 21 kts 252°
2026-05-01 11:26 -23.43031 -46.47844 2455 ft 22 kts 255°
2026-05-01 11:26 -23.43071 -46.48004 2455 ft 21 kts 254°
2026-05-01 11:27 -23.43112 -46.48151 2455 ft 19 kts 253°
2026-05-01 11:27 -23.43149 -46.48288 2455 ft 17 kts 252°
2026-05-01 11:27 -23.43171 -46.48386 2454 ft 13 kts 273°
2026-05-01 11:27 -23.43113 -46.48457 2453 ft 14 kts 342°
2026-05-01 11:28 -23.43020 -46.48492 2452 ft 13 kts 317°
2026-05-01 11:28 -23.42991 -46.48584 2452 ft 13 kts 277°
2026-05-01 11:28 -23.42981 -46.48687 2452 ft 13 kts 275°
2026-05-01 11:29 -23.42884 -46.48792 2451 ft 10 kts
2026-05-01 11:29 -23.42813 -46.48786 2453 ft 10 kts
2026-05-01 11:29 -23.42756 -46.48853 2451 ft 9 kts 275°
2026-05-01 11:30 -23.42753 -46.48881 2451 ft 0 kts 278°